AirNav   Pilot Hours Calculator
 
 1124 users online  

9MI1 Custer Main Heliport
Battle Creek, Michigan, USA

GOING TO BATTLE CREEK?


FAA INFORMATION EFFECTIVE 30 JANUARY 2020

Location

FAA Identifier: 9MI1
Lat/Long: 42-19-54.0000N 085-17-48.0000W
42-19.900000N 085-17.800000W
42.3316667,-85.2966667
(estimated)
Elevation: 883 ft. / 269 m (estimated)
Variation: 04W (1990)
From city: 4 miles W of BATTLE CREEK, MI
Time zone: UTC -5 (UTC -4 during Daylight Saving Time)
Zip code: 49015

Heliport Operations

Heliport use: Private use. Permission required prior to landing
Activation date: 10/1992
Control tower: no
ARTCC: CHICAGO CENTER
FSS: LANSING FLIGHT SERVICE STATION
Attendance: CONTINUOUS
Wind indicator: yes
Segmented circle: no

Heliport Communications

WX ASOS at BTL (2.6 nm SE): PHONE 269-964-0283
WX ASOS at AZO (13 nm SW): 127.25 (269-459-3391)
WX AWOS-3 at RMY (16 nm E): 120.025 (269-781-9070)

Nearby radio navigation aids

VOR radial/distance  VOR name  Freq  Var
AZOr064/12.7KALAMAZOO VOR/DME109.0001W
LFDr309/28.6LITCHFIELD VOR/DME111.2005W
VIOr166/28.7VICTORY VOR/DME115.9504W
PMMr103/36.7PULLMAN VOR/DME112.1000E
JXNr282/37.4JACKSON VOR/DME109.6005W
ELXr073/38.4KEELER VOR/DME116.6000E

 
NDB name  Hdg/Dist  Freq  Var  ID
BATOL254/5.327204WBT -... -
STURGIS015/31.738204WIRS .. .-. ...

Heliport Services

Runway Information

Helipad H1

Dimensions: 22 x 22 ft. / 7 x 7 m
Surface: concrete
Traffic pattern: leftleft

Heliport Ownership and Management from official FAA records

Ownership: Publicly-owned
Owner: DEPT OF DEFENSE
2501 26TH ST
AUGUSTA, MI 49012
Phone 616-731-4384
Manager: MAJOR PATRICK WILK
2501 26TH ST
AUGUSTA, MI 49012
Phone (269) 282-7555
MICHIGAN ARMY NATL GUARD.

Additional Remarks

A52-H1 20 FT WINDSOCK 75 FT W; 30 FT PLINES 600 FT E.
FOR CD CTC GREAT LAKES APCH AT 269-459-3345, WHEN APCH CLSD CTC CHICAGO ARTCC AT 630-906-8921.

Instrument Procedures

There are no published instrument procedures at 9MI1.

Some nearby airports with instrument procedures:

KBTL - W K Kellogg Airport (3 nm SE)
KAZO - Kalamazoo/Battle Creek International Airport (13 nm SW)
KRMY - Brooks Field Airport (16 nm E)
9D9 - Hastings Airport (20 nm N)
KFPK - Fitch H Beach Airport (26 nm NE)
 
Loc | Ops | Rwys | IFR | FBO | Links
Com | Nav | Svcs | Stats | Notes
Area around 9MI1 (Custer Main Heliport)
 
Road maps at: MapQuest Bing Google
 
Aerial photo
No photo
 
Sectional chart

 
Airport distance calculator
Flying to Custer Main Heliport? Find the distance to fly.

From to 9MI1

Sunrise and sunset
Times for 17-Feb-2020
 Local
(UTC-5)
 Zulu
(UTC)
Morning civil twilight07:0712:07
Sunrise07:3612:36
Sunset18:1523:15
Evening civil twilight18:4323:43

Current date and time
Zulu (UTC)  17-Feb-2020 22:53:40
Local (UTC-5)  17-Feb-2020 17:53:40
 
METAR
KBTL 
3nm E 
172153Z 12009KT 10SM BKN046 OVC060 02/M03 A3007 RMK AO2 SLP195 T00171033 $
KAZO 
13nm SW 
172153Z 09006KT 10SM BKN039 OVC050 02/M04 A3005 RMK AO2 PRESFR SLP185 T00221044
KRMY 
16nm E 
172236Z AUTO 13007KT 10SM SCT050 SCT060 OVC065 01/M04 A3007 RMK AO2 T00051042
TAF
KBTL 
3nm E 
171740Z 1718/1818 11010G20KT P6SM OVC080 FM172200 12012G21KT 2SM -RASN OVC025 FM180000 12012G21KT 3/4SM -SN VV007 FM180300 13010G18KT 2SM -RA BR OVC009 FM180900 23011KT 3/4SM -DZ BR OVC004 FM181300 27012KT 6SM BR OVC009 FM181500 29013G21KT P6SM OVC015
KAZO 
13nm SW 
171740Z 1718/1818 12010G18KT P6SM OVC080 FM172100 13010G18KT 3SM -RASN OVC025 TEMPO 1721/1724 3/4SM -SN OVC015 FM180100 12010G18KT 2SM -RA BR OVC009 FM180900 23011KT 3/4SM -DZ BR OVC004 FM181300 27012KT 6SM BR OVC009 FM181500 29013G21KT P6SM OVC015
NOTAMs
Click for the latest NOTAMs
NOTAMs are issued by the DoD/FAA and will open in a separate window not controlled by AirNav.

 

 
 

Would you like to see your business listed on this page?

 If your business provides an interesting product or service to pilots, flight crews, aircraft, or users of the Custer Main Heliport, you should consider listing it here.  To start the listing process, click on the button below
 
Add a business
 

Other Pages about Custer Main Heliport

Update a link
 
Copyright © AirNav, LLC. All rights reserved. Privacy Policy  Contact